APSTAR-7

Last updated on Tue Sep 22 2026 00:03:12 GMT+0000 (Coordinated Universal Time)

1 38107U 12013A 26264.57556440 -.00000106 00000+0 00000+0 0 9998 2 38107 0.0063 159.1244 0002615 14.0393 111.0163 1.00272156 52789
UTC large
Height (km)
Speed (km/s)
/
Latitude / Longitude
Inclination (degrees)
Orbital Period (minutes)
Azimuth
Elevation
Range (km)
Doppler Factor

Next 0 passes for location: London (51.5072 / 0.1276)

No passes found over London.
APSTAR-7